Date: March 12th 2010
HST
1 20580U 90037B 10066.57864224 +.00000570 +00000-0 +30822-4 0 05329
2 20580 028.4687 183.1574 0003395 198.8317 161.2293 15.00913799889472
ISS (ZARYA)
1 25544U 98067A 10066.17843750 .00014378 00000-0 10419-3 0 7188
2 25544 051.6477 034.3005 0007652 023.0080 154.7514 15.73697725647400
CXO
1 25867U 99040B 10068.58333333 -.00000183 +00000-0 +10000-3 0 04369
2 25867 066.6519 058.3027 8008682 275.2227 359.9148 00.37807070006015
These 2-Line Elements (TLEs) are direct from DoD/ USSTRATCOM/ US Space Command with permission.
Updates are provided automatically daily.
By receiving this email, you agree not to transfer any data or information received under this agreement, including the analysis of tracking data, to any other entity without the express approval of the Aus-City Forum Admins and/ or DoD/ USSTRATCOM/ US Space Command.
David Cottle
Director Of Engineering
IDB Communications
The following information is a reminder of your current mailing list subscription:
You are subscribed to the following list:
[TLELIST]
using the following email:
You may automatically unsubscribe from this list at any time by visiting the following URL:
<http://www.aus-city.com/cgi-bin/dada/mail.cgi/u/TLELIST/example/example.com/>
If the above URL is inoperable, make sure that you have copied the entire address. Some mail readers will wrap a long URL and thus break this automatic unsubscribe mechanism.
You may also change your subscription by visiting this list's main screen:
<http://www.aus-city.com/cgi-bin/dada/mail.cgi/list/TLELIST>
If you're still having trouble, please contact the list owner at:
<mailto:list.admin@aus-city.com>
The following physical address is associated with this mailing list:
|
<< Previous: [TLELIST] Current TLEs |
| Archive Index | |
|